Tracking 20942 objects as of 15-Jul-2020
HD Live streaming from Space Station
objects crossing your sky now

SL-8 DEB

Track SL-8 DEB now!
10-day predictions


NORAD ID: 7560
Int'l Code: 1972-062D
Perigee: 831.4 km
Apogee: 929.1 km
Inclination: 83.0 °
Period: 102.4 minutes
Semi major axis: 7251 km
RCS: 0.0247 m2 (small)
Launch date: August 16, 1972
Source: Commonwealth of Independent States (former USSR) (CIS)
Launch site: PLESETSK MISSILE AND SPACE COMPLEX (PKMTR)

Note: This is SATELLITE DEBRIS
aabbcc
Your satellite tracking list
Your tracking list is empty




NASA's NSSDC Master Catalog

Two Line Element Set (TLE):
1  7560U 72062D   20196.05799358 +.00000124 +00000-0 +64360-4 0  9999
2  7560 082.9744 045.0784 0067380 197.9284 161.9513 14.06001249335347
Source of the keplerian elements: AFSPC